Location: Risskov
(56.1972°N, 10.2480°E)
Time: 00:34:50
(UTC+00:00)

NOSS 3-3 (A) - Pass Details

Date: 05 July 2020
Orbit: 825 x 1387 km, 63.4° (Epoch: 01 August)

Event Time Altitude Azimuth Distance (km) Brightness Sun altitude
Rises 22:18:06 0° 228° (SW) 3,478 6.6 -9.9°
Reaches altitude 10° 22:20:27 10° 228° (SW) 2,594 6.0 -10.0°
Maximum altitude 22:26:30 86° 141° (SE) 1,004 4.1 -10.2°
Drops below altitude 10° 22:33:30 10° 53° (NE) 2,978 6.9 -10.4°
Sets 22:36:23 0° 54° (NE) 4,027 7.6 -10.5°
